Location: Casilda
(33.0440°S, 61.1680°W)
Time: 15:57:01
(UTC-03:00)

ISS - Pass Details

Date: 15 April 2021
Orbit: 418 x 422 km, 51.6° (Epoch: 17 April)

Event Time Altitude Azimuth Distance (km) Brightness Sun altitude
Exits shadow 05:53:00 11° 359° (N) 1,419 -1.1 -20.4°
Drops below altitude 10° 05:53:15 10° 2° (N) 1,503 -0.9 -20.3°
Sets 05:55:37 0° 17° (NNE) 2,359 0.3 -19.8°
